RH
40 41 42 42 43 42 57 64 75 90 87 96 100 94 93 93 97 97 97 98 96 93 96 99 100 96 89 92 93 92 92 87 85 90 92 90 97 101 97 89 80 80 86 90 92 97 99 96 96 97 96 94 94 91 86 85 86 83 79 78 79 75 73 74 76 82 85 84 85 88 89 89 88 87 85 81 80 84 87 89 88 79 76 75 72 72 71 71 71 73 73 72 77 77 74 81 87
43 46 45 44 46 45 67 80 84 99 97 97 98 97 97 98 100 96 94 96 93 91 97 100 98 98 96 96 94 89 90 92 92 92 94 98 101 99 99 93 83 83 86 90 94 97 101 98 96 97 94 95 93 86 81 80 82 82 79 76 75 75 78 81 81 84 87 87 86 86 87 87 86 85 81 78 82 85 86 88 90 83 77 74 73 73 71 71 72 74 74 74 78 77 74 77 83
44 47 47 44 50 59 77 83 87 99 100 98 96 96 98 98 95 90 90 91 91 95 98 94 91 93 91 89 90 86 90 98 98 98 99 99 100 99 98 95 88 85 87 92 94 96 100 99 97 95 91 92 89 84 82 79 78 81 80 76 75 78 82 85 86 87 88 87 84 83 83 84 83 82 79 79 83 84 86 87 89 87 78 75 74 72 72 72 73 76 74 75 79 76 75 78 83
47 49 49 44 55 74 84 86 94 99 98 99 97 97 99 96 89 87 92 93 93 96 94 89 87 88 87 90 91 88 93 99 95 96 101 99 99 98 97 97 91 87 89 92 95 97 99 99 97 94 88 84 83 84 84 81 77 79 81 80 79 79 80 83 86 86 86 86 84 84 83 81 79 80 81 82 83 82 86 87 89 87 78 75 73 71 73 73 73 75 74 75 77 78 81 82 82
49 52 49 47 61 74 82 91 100 98 93 95 96 97 100 97 91 91 95 94 94 93 91 90 86 86 90 95 96 93 95 97 93 95 100 100 98 97 98 98 94 92 92 95 98 98 99 97 93 91 87 82 83 86 84 82 79 80 84 83 81 79 77 78 82 82 83 84 82 84 84 81 78 79 81 81 82 81 84 86 86 84 78 76 72 71 73 73 72 72 73 75 76 82 83 77 71
50 53 53 50 59 70 82 96 99 98 91 87 91 95 100 96 92 95 93 87 90 92 90 90 86 86 91 93 97 96 95 96 96 96 98 100 96 95 100 100 97 97 96 98 99 97 98 94 89 89 88 84 84 86 82 82 84 85 87 86 83 79 76 76 78 78 77 81 82 83 83 81 79 79 79 78 80 81 81 81 81 80 77 74 72 72 73 72 73 72 74 77 80 85 74 55 55
48 54 69 66 67 78 91 100 98 98 92 84 87 88 92 95 92 94 91 84 85 86 88 91 88 85 87 88 91 90 86 92 97 96 98 99 94 95 100 100 100 99 98 98 97 94 93 89 88 87 85 84 83 85 82 83 88 87 88 87 83 78 75 74 76 75 74 77 80 81 82 80 80 79 77 77 78 77 77 77 77 77 74 72 71 72 73 73 73 74 78 82 86 83 57 30 31
48 63 88 87 86 93 95 101 98 97 95 88 90 86 86 93 92 91 91 87 83 83 89 96 90 82 88 92 93 89 84 88 94 94 97 99 94 97 100 100 100 100 98 96 95 93 91 89 88 86 84 86 84 84 84 84 86 85 86 87 83 76 72 73 73 73 74 75 76 78 81 82 82 80 78 77 76 74 74 75 76 76 75 74 74 74 75 75 75 80 84 85 87 78 47 22 20
52 66 86 88 92 99 98 99 96 96 98 93 92 88 88 92 89 89 91 86 82 85 91 95 90 83 90 96 93 93 89 85 91 93 97 100 95 98 100 100 100 98 96 95 95 93 91 92 89 85 85 85 83 85 86 81 82 84 84 84 82 76 72 73 72 72 73 73 74 76 80 82 82 83 81 78 76 75 74 74 75 74 76 76 76 77 75 77 81 85 87 86 83 70 42 24 21
61 70 80 89 94 98 99 99 97 96 96 93 90 86 91 93 87 86 88 86 82 84 89 88 85 86 90 93 92 95 91 83 90 95 97 100 97 99 100 100 99 95 95 96 95 92 91 94 91 86 85 84 83 85 86 82 81 82 82 79 78 76 72 72 72 72 72 71 72 74 77 79 82 82 82 80 78 77 76 75 73 73 77 77 77 76 76 82 86 87 89 87 77 59 36 22 21
77 81 80 89 97 99 98 97 96 94 92 90 85 85 91 91 87 87 89 90 85 84 88 85 82 87 90 93 93 90 87 84 91 98 99 100 98 99 100 100 99 95 95 95 93 92 92 94 91 88 85 83 83 84 85 84 81 79 79 77 75 74 71 72 70 70 72 72 72 72 73 77 80 79 79 81 79 78 77 75 74 76 77 75 76 76 80 85 87 89 89 82 68 47 24 15 14
82 88 85 91 100 100 98 97 95 94 94 90 81 80 89 89 85 86 89 88 87 89 90 84 81 82 87 95 95 90 88 88 92 99 100 100 100 100 100 100 99 97 95 92 89 91 94 92 88 85 79 78 82 84 85 85 82 79 77 75 74 70 69 72 69 67 70 71 71 72 73 76 78 75 76 78 78 76 73 74 77 77 75 74 78 81 84 87 88 88 83 70 52 28 11 8 8
86 92 92 96 101 98 98 100 99 96 95 92 81 74 84 91 86 86 89 88 91 94 87 84 82 77 84 92 94 94 91 88 94 100 100 100 100 100 100 99 98 98 96 91 87 88 91 90 87 81 75 79 86 86 87 86 82 80 77 72 70 67 68 72 71 69 69 70 71 72 75 78 78 75 75 77 76 72 71 74 78 75 75 79 83 86 88 86 82 76 68 53 33 15 7 6 5
85 93 90 91 98 100 100 99 96 96 96 89 78 75 82 85 84 88 90 90 92 89 80 80 79 76 82 84 89 98 90 86 95 100 100 100 100 100 100 97 96 96 95 92 86 83 83 86 87 82 80 85 87 87 88 87 82 78 75 70 66 64 66 72 75 74 71 71 72 74 78 77 78 76 72 75 73 69 73 75 76 75 79 84 85 88 91 87 78 70 61 43 25 14 8 5 4
80 93 88 87 96 98 97 95 90 89 90 79 68 75 80 74 77 88 88 86 86 79 75 77 72 73 81 78 84 92 84 85 97 100 100 100 100 100 99 96 95 94 92 89 85 82 79 80 84 85 86 85 85 87 88 87 82 77 75 70 66 63 63 70 74 77 76 72 71 75 76 73 73 73 70 71 70 71 76 76 78 80 83 85 83 89 91 83 75 68 53 32 20 12 7 6 5
86 93 86 86 95 98 96 93 80 72 80 76 68 73 75 72 74 81 82 78 77 73 76 81 72 70 81 79 75 76 79 87 97 100 100 100 100 99 98 96 95 92 89 86 84 84 80 78 81 84 86 84 83 85 86 86 82 78 77 71 67 65 64 67 70 74 76 72 70 72 73 70 68 69 69 70 71 75 77 78 81 83 86 86 84 89 84 70 62 53 35 18 13 9 5 6 4
83 87 91 95 98 98 92 86 71 62 71 71 69 73 72 73 70 66 68 69 74 76 80 86 76 70 81 80 69 71 83 92 98 100 100 100 100 99 98 96 94 91 88 86 86 86 82 79 81 82 83 83 82 82 83 84 80 75 73 69 66 67 67 67 68 69 71 70 70 71 70 68 66 67 71 72 73 73 72 77 85 87 87 88 87 85 75 58 41 27 17 9 7 6 5 5 5
73 84 95 98 97 97 86 74 65 54 51 53 68 80 73 72 69 59 60 66 71 76 82 83 76 71 74 72 67 76 89 95 99 98 96 99 99 99 99 97 95 91 89 87 87 88 84 82 82 83 83 83 82 82 82 82 80 74 69 67 67 68 69 69 68 67 67 68 69 71 69 67 65 68 71 70 69 65 63 68 80 90 88 88 88 77 69 55 28 10 7 6 5 5 6 5 5
80 94 93 95 93 92 81 64 54 46 41 44 64 80 77 73 68 58 60 72 74 74 79 80 80 77 71 72 76 83 94 97 98 94 91 95 97 98 99 98 95 92 90 88 86 88 86 85 85 84 83 83 82 81 82 81 79 74 70 69 68 69 70 70 68 68 68 67 68 71 70 68 66 68 67 66 64 54 49 48 61 85 87 86 85 71 66 56 26 8 5 5 5 5 5 6 6
76 88 85 94 91 85 82 64 47 42 39 39 53 70 82 79 65 59 63 72 77 75 74 74 80 79 73 82 92 93 96 97 95 92 89 90 94 96 96 96 96 92 90 88 86 88 88 86 86 86 84 83 82 81 80 79 76 73 73 72 69 69 70 70 68 66 67 66 67 69 70 70 67 67 64 66 61 40 33 35 43 63 66 61 59 52 49 42 21 8 5 5 6 5 6 6 6
63 77 82 90 82 73 72 60 45 41 40 46 60 65 75 78 65 61 65 62 61 63 65 66 68 66 73 91 100 100 98 96 94 92 89 87 90 93 93 94 93 91 90 89 88 87 89 88 86 87 86 84 82 81 79 77 75 72 74 73 70 69 68 69 67 65 65 64 63 63 68 71 67 66 63 66 56 31 28 32 32 39 39 37 36 32 29 24 15 8 6 5 5 5 6 6 6
59 70 77 81 69 58 56 49 41 41 42 51 63 58 59 68 62 61 67 57 45 48 56 60 60 60 74 91 98 100 99 96 94 91 89 86 86 89 91 92 92 91 90 89 88 87 89 89 87 87 86 85 83 80 78 76 73 70 71 71 70 69 67 67 65 65 63 60 56 52 62 72 70 65 59 58 47 28 28 30 30 31 30 31 27 22 19 15 11 7 6 5 6 6 6 6 6
48 55 60 63 56 48 43 40 40 41 38 43 55 54 55 61 59 65 70 56 43 51 63 64 65 63 68 85 95 100 100 96 94 91 90 87 84 86 89 91 91 91 90 89 89 88 89 89 88 87 86 86 84 81 78 75 72 66 66 67 67 67 66 65 63 63 59 53 47 38 53 71 71 63 49 41 34 26 29 30 30 31 29 28 23 18 14 10 8 6 6 6 6 6 6 6 6
42 51 55 49 43 41 38 40 44 44 37 41 52 48 48 52 55 64 64 53 48 57 66 68 72 72 72 86 97 98 98 97 94 91 90 88 84 83 86 90 90 90 90 90 89 88 89 90 90 88 87 86 84 82 78 76 71 64 61 62 62 60 60 61 60 59 51 46 39 30 47 63 59 53 38 27 28 27 29 30 30 31 30 28 24 19 12 9 7 6 6 6 6 6 6 7 7
44 52 56 43 35 41 44 44 43 46 45 44 48 41 40 49 53 57 52 44 46 53 59 64 73 82 87 89 94 96 96 96 94 92 90 88 86 82 83 88 89 90 90 89 89 89 88 89 91 90 87 85 83 82 79 77 70 61 58 56 55 54 52 53 55 52 44 40 34 27 38 43 35 35 30 23 26 27 28 30 31 31 32 30 27 23 16 11 7 6 6 6 6 6 6 7 7
46 48 46 35 33 43 43 39 39 46 49 44 39 35 40 48 50 46 38 36 42 48 52 58 68 80 88 88 91 95 95 95 94 93 91 89 87 83 81 85 88 89 89 89 88 89 89 89 91 90 88 86 83 82 80 77 71 62 56 53 51 49 46 48 48 43 37 35 30 25 27 27 23 25 24 23 26 27 29 30 31 32 32 32 30 27 21 14 9 7 6 6 6 6 7 7 7
46 45 40 35 39 48 42 34 43 48 44 43 38 34 40 44 45 35 29 44 53 48 48 59 70 75 79 86 90 93 94 93 92 93 93 90 88 85 81 81 86 89 88 89 89 88 90 89 89 89 89 88 85 83 81 78 73 64 56 54 51 46 44 44 41 37 36 34 29 26 25 24 24 23 22 24 25 26 28 30 30 31 32 32 32 30 26 19 12 8 6 6 6 6 7 7 7
38 38 33 41 45 43 41 36 43 44 35 44 43 37 41 44 46 33 28 51 56 43 48 63 76 78 78 85 89 92 94 91 89 93 94 92 88 86 83 80 82 87 88 88 89 89 89 89 88 89 89 88 86 84 81 79 75 67 58 55 52 45 43 41 38 37 36 33 31 28 25 25 24 24 24 24 25 26 28 29 30 30 31 32 32 32 29 24 16 9 7 7 6 7 7 7 7
36 37 29 43 48 37 39 40 43 39 32 46 46 34 37 41 42 32 30 50 52 46 52 60 72 80 82 86 89 92 93 90 92 94 94 91 89 86 84 81 80 83 87 87 87 89 89 88 88 88 89 89 87 84 82 80 75 68 61 56 52 46 42 41 39 38 37 34 33 29 26 26 25 25 25 24 25 26 27 28 29 30 30 31 32 32 32 27 21 13 9 7 7 7 7 7 7
31 36 36 43 44 40 42 40 43 37 37 47 42 34 32 34 36 31 35 45 46 47 48 50 65 78 83 88 90 91 92 92 94 93 92 91 89 87 85 82 80 80 84 86 86 88 89 89 88 88 89 89 87 85 83 80 76 70 63 60 55 48 43 41 40 39 38 36 34 32 28 26 26 26 25 25 25 26 27 28 28 29 30 31 32 32 32 30 25 19 13 9 7 7 7 7 7
34 33 56 60 39 47 54 47 44 31 37 44 34 39 34 25 30 33 42 47 43 42 40 41 53 66 77 84 89 89 90 91 91 89 89 90 90 89 86 83 81 79 81 84 85 86 88 89 89 88 89 89 88 86 85 81 78 74 67 63 58 52 46 42 41 39 39 38 36 35 32 28 27 27 27 26 26 26 27 28 28 29 30 30 31 32 32 31 29 23 17 12 8 7 7 7 7
57 30 51 69 44 54 62 53 52 33 34 38 27 40 37 25 28 36 53 56 48 45 40 42 46 50 60 71 83 87 87 87 88 88 87 89 90 90 88 85 82 80 79 81 83 84 87 89 89 89 89 89 89 87 86 84 81 77 71 67 62 56 50 46 44 41 39 38 37 37 35 32 29 28 28 27 27 26 26 27 28 29 30 31 31 32 32 32 30 25 19 13 10 8 7 7 7
74 42 39 60 49 55 55 45 58 47 35 35 31 38 36 28 29 40 58 57 51 50 43 43 44 44 46 53 68 78 83 87 88 89 88 87 89 90 89 86 83 81 79 79 80 82 84 87 88 89 89 88 88 87 87 86 83 80 75 70 66 60 53 51 48 43 40 40 39 38 37 35 32 30 29 28 28 27 27 27 28 29 30 31 31 32 32 32 31 27 21 16 13 11 8 8 7
66 63 50 58 54 53 52 42 54 54 38 37 40 41 37 31 27 33 46 46 45 45 38 36 36 38 40 44 53 63 73 80 82 84 85 86 87 88 89 87 85 82 80 78 79 80 80 83 86 88 89 88 88 88 87 87 85 82 78 73 69 64 57 54 50 44 41 41 40 40 38 36 35 34 31 30 29 28 28 27 28 29 30 31 31 32 32 31 30 27 23 20 16 13 11 9 8
43 55 51 56 61 55 56 49 51 54 46 47 49 47 41 34 31 29 32 38 40 37 33 33 32 32 35 40 45 49 56 63 65 70 76 81 83 85 87 88 87 85 82 80 78 79 78 79 82 85 88 88 88 89 88 88 86 82 79 76 71 66 60 56 51 46 42 41 41 41 40 38 38 38 34 32 30 29 29 28 28 29 30 31 31 31 32 31 30 28 26 23 17 13 12 10 9
40 52 54 53 56 52 51 51 60 63 56 58 56 52 48 39 39 34 28 36 40 37 34 32 32 32 33 36 41 42 46 47 46 53 65 73 79 83 86 87 89 87 84 82 80 79 78 76 77 81 84 87 88 89 89 88 87 83 80 77 73 68 64 59 53 48 44 42 42 42 41 41 40 40 38 35 33 31 30 29 28 29 30 32 32 32 32 31 31 30 29 25 19 14 12 11 10
48 55 59 55 55 50 42 44 66 70 56 61 62 57 54 43 37 29 21 25 29 29 28 28 28 29 31 34 38 40 41 41 39 44 54 64 74 79 83 87 89 90 88 85 83 80 79 76 73 75 78 83 87 87 88 87 85 83 80 77 74 72 68 63 57 51 48 46 45 45 43 42 42 41 39 37 35 33 31 30 29 29 31 32 32 32 31 32 31 30 30 27 21 16 14 13 12
52 53 56 59 61 51 41 43 65 67 50 54 55 43 36 29 24 19 17 19 21 22 22 24 24 25 31 35 37 39 38 40 42 45 51 60 70 76 80 85 87 90 90 87 86 82 79 77 73 72 72 77 82 83 84 85 84 83 80 78 76 74 72 68 65 61 59 56 51 48 46 44 44 42 40 39 39 37 33 32 30 30 32 33 33 33 32 32 31 30 29 27 24 19 16 16 15
63 61 55 56 59 50 46 49 61 60 41 39 43 34 26 21 19 17 18 20 20 23 25 25 25 25 29 32 36 39 39 40 42 45 51 56 64 72 78 82 84 86 88 88 87 84 81 78 75 71 69 70 74 78 80 80 81 81 79 78 76 74 73 71 70 69 67 62 56 51 47 45 46 44 42 40 40 39 36 34 32 32 32 34 35 34 34 33 32 31 30 29 28 23 20 18 17
62 60 50 49 49 38 36 44 54 52 38 40 45 38 25 16 19 18 20 28 27 30 36 36 36 32 27 30 34 37 38 38 39 42 48 53 58 67 76 81 83 84 86 88 88 87 83 80 77 73 69 67 67 70 74 75 76 77 76 75 74 72 70 69 67 65 63 60 56 53 50 47 47 47 47 45 42 40 39 37 35 34 34 35 36 36 35 34 33 32 31 31 29 28 26 22 20
63 61 49 44 39 31 35 41 42 35 34 47 44 28 18 17 27 24 19 30 30 30 40 38 39 42 38 39 39 39 39 36 37 39 43 53 58 63 69 75 80 83 85 84 85 87 85 81 78 75 72 68 65 64 66 69 70 71 71 70 68 65 63 62 60 59 57 56 55 53 51 50 49 49 49 48 45 44 43 41 39 37 37 37 37 37 36 35 35 33 33 32 30 31 30 27 26
54 53 46 40 34 34 44 42 30 20 21 34 32 20 19 21 26 23 18 28 29 26 33 29 28 36 41 44 40 37 41 40 41 40 41 50 55 58 62 66 74 80 81 80 81 83 84 82 78 75 74 70 67 64 61 62 64 64 65 63 62 61 59 59 57 56 55 54 54 53 52 52 51 51 50 49 48 47 46 45 43 41 40 40 38 38 38 37 37 35 34 33 32 32 30 30 30
36 45 49 49 44 41 44 37 25 23 19 21 27 22 23 21 13 21 31 33 27 22 25 26 25 30 36 41 40 39 42 41 43 45 45 48 51 57 61 62 68 71 73 76 79 81 81 81 80 75 73 71 69 67 63 60 59 60 60 60 60 60 59 59 57 57 56 55 55 54 54 54 53 53 51 50 49 48 47 46 46 44 43 42 41 40 40 39 38 36 36 34 33 33 31 30 30
40 53 58 53 45 41 44 35 24 32 30 30 39 27 27 32 18 27 41 28 20 19 21 26 27 28 31 34 38 42 44 45 47 47 46 48 50 55 58 58 60 60 63 70 74 78 79 79 79 76 73 70 68 66 65 63 61 60 60 60 60 60 60 59 58 57 56 56 56 56 56 56 55 55 54 53 51 50 49 47 46 46 46 45 44 43 41 40 39 38 38 36 35 35 33 31 29
43 60 65 59 49 48 56 52 50 58 42 35 53 39 31 42 29 29 35 19 18 25 24 28 27 26 29 29 31 34 38 45 50 49 48 49 48 48 51 53 55 57 60 65 68 71 76 77 78 77 74 72 69 66 65 63 62 61 61 61 61 61 60 60 59 59 58 57 57 56 57 56 56 56 56 55 54 53 51 50 48 48 48 47 46 45 44 43 42 40 39 38 37 36 35 33 31
44 62 64 66 73 72 68 65 64 67 46 31 47 41 29 40 32 21 24 20 26 31 27 29 28 27 30 32 34 34 34 38 44 51 52 51 48 44 44 49 54 58 60 62 65 68 72 76 77 77 75 73 70 68 65 63 62 61 61 61 61 61 61 60 61 60 60 59 58 57 57 56 56 56 56 56 55 55 53 52 51 50 50 50 49 48 47 46 44 43 41 40 39 38 37 36 33
52 53 38 38 61 64 68 83 67 52 53 48 49 42 28 33 33 23 24 29 36 37 33 33 33 33 35 38 41 42 43 44 46 53 57 58 55 48 45 48 52 57 61 64 66 67 68 71 74 75 75 75 73 70 67 64 62 61 61 61 61 61 60 61 61 61 60 60 59 58 56 56 55 55 55 55 54 54 54 53 53 52 52 51 51 50 49 48 47 45 44 42 41 40 39 38 36
44 37 26 18 36 38 49 80 64 42 55 57 56 52 35 33 34 28 30 34 38 41 40 40 39 40 41 43 47 47 49 53 54 59 63 66 67 62 57 55 52 52 58 65 68 70 70 69 70 71 72 74 75 73 71 67 65 62 61 60 60 60 60 61 61 60 60 59 58 57 56 55 54 54 53 53 53 52 52 53 53 53 53 53 52 52 51 50 49 48 47 46 44 42 41 40 39
34 33 41 32 38 37 37 52 49 45 50 47 53 52 39 37 34 29 34 36 38 42 42 45 47 47 48 49 51 51 51 53 56 57 61 65 70 73 71 68 64 60 59 62 65 68 71 71 71 71 72 74 74 75 74 72 68 65 63 61 60 59 59 59 60 59 58 58 58 57 57 56 54 54 53 52 52 51 51 51 52 52 52 52 52 52 52 51 51 50 49 48 46 45 43 42 40
30 29 43 41 34 29 32 42 40 41 44 41 42 42 42 41 31 31 37 36 40 43 44 50 53 53 54 54 54 54 53 53 54 55 56 59 63 66 68 69 70 71 69 69 68 67 67 69 70 71 72 73 73 73 74 74 73 70 67 64 62 60 59 59 58 58 57 57 57 57 56 56 56 55 54 53 52 52 51 51 51 51 51 51 52 51 52 52 52 52 51 50 49 47 46 44 42
40 31 31 37 36 25 30 44 39 36 47 46 30 34 51 42 29 38 40 38 44 44 47 54 56 58 58 57 57 56 56 55 54 56 56 57 58 58 60 61 62 63 65 67 69 67 65 64 63 64 66 68 68 69 70 71 72 72 71 69 66 63 61 61 59 59 58 58 58 58 57 57 57 56 55 55 55 53 53 52 51 52 51 51 51 51 52 53 53 53 52 51 50 49 48 46 44
41 35 23 36 45 30 32 51 47 34 44 52 36 37 51 37 32 44 41 44 50 46 50 56 59 64 62 62 63 60 59 59 57 59 59 59 59 58 58 58 58 58 57 58 60 60 59 56 53 51 53 56 58 61 63 65 65 67 69 70 70 68 66 64 62 61 60 59 59 59 59 58 58 58 57 57 57 56 55 55 53 52 52 51 51 51 52 52 53 53 53 52 51 50 49 47 46
30 31 30 43 39 19 24 46 52 39 35 43 37 32 37 30 34 45 44 51 55 50 54 59 62 67 67 68 68 64 64 62 61 62 62 61 61 61 61 59 59 59 58 58 57 56 57 55 51 48 45 44 45 48 52 56 58 60 62 64 65 67 67 66 65 64 63 62 62 61 60 60 59 59 58 57 58 57 57 56 55 54 53 52 52 51 52 52 53 53 53 53 52 51 50 49 47
29 32 32 33 28 27 34 37 41 44 38 38 38 38 42 40 40 46 52 59 60 56 58 60 65 70 72 72 69 67 67 64 64 64 62 63 62 62 63 61 60 59 59 59 58 58 59 58 57 54 50 46 42 41 41 44 47 51 54 57 59 61 62 62 62 61 61 61 62 61 61 61 59 59 58 58 58 58 57 57 56 55 54 53 52 52 51 52 53 53 53 53 52 52 51 50 49
31 34 31 26 30 42 47 37 40 46 39 43 53 52 50 53 55 55 61 66 64 62 61 63 69 72 75 76 71 69 69 67 67 66 65 66 63 64 65 64 62 61 61 62 61 62 63 63 63 61 57 53 48 45 43 41 41 41 43 45 49 52 55 58 59 59 60 60 58 58 58 57 57 57 57 57 57 57 57 57 56 55 55 53 52 52 52 52 52 53 53 53 53 53 52 51 50
36 36 39 37 38 46 46 42 52 52 37 45 60 52 42 51 59 58 61 67 66 65 66 67 70 73 76 77 75 73 71 70 70 68 68 67 65 66 67 66 65 62 63 65 65 66 67 68 68 67 65 62 58 55 52 50 48 45 43 41 40 42 45 48 52 55 59 61 62 63 62 61 60 59 58 57 57 56 56 56 55 55 54 54 52 51 51 51 52 52 52 53 53 53 52 52 51
49 48 50 43 35 42 45 42 52 47 32 43 53 45 46 52 54 57 61 64 64 66 70 69 69 73 76 77 76 75 74 72 70 69 69 68 67 68 68 69 68 65 66 68 69 71 71 72 72 70 70 67 65 64 60 58 58 55 53 51 47 45 43 42 43 45 48 51 55 58 60 63 65 65 64 63 60 58 57 56 55 55 54 53 53 52 51 51 51 51 51 52 52 52 52 51 51
58 56 55 55 48 45 40 42 54 47 42 57 53 44 56 58 52 58 62 61 64 67 70 70 70 73 77 78 77 76 76 75 72 70 70 70 70 70 71 72 71 69 70 71 73 75 74 75 75 73 73 71 69 69 66 64 63 61 60 60 59 56 53 51 48 46 46 47 48 49 51 54 57 60 63 66 67 65 62 59 57 56 55 54 53 52 51 50 50 50 50 51 51 52 52 52 51
Wind_Speed
8 8 9 7 5 2 3 4 1 2 2 1 2 1 4 2 1 2 3 1 1 2 2 1 1 1 2 2 4 3 2 5 5 4 3 2 2 15 22 19 26 28 27 25 24 22 21 22 21 22 21 21 21 20 19 18 19 17 16 15 14 13 13 13 14 14 13 12 13 14 14 16 16 16 17 16 15 15 15 16 17 17 16 15 16 16 16 16 16 16 16 16 17 17 18 18 19
9 9 8 5 5 3 1 3 1 2 2 3 2 3 4 2 0 4 6 4 3 2 0 1 1 1 1 1 2 1 3 3 2 2 2 1 5 16 19 20 27 28 26 25 24 23 21 23 22 23 22 22 21 21 19 18 18 17 15 14 13 13 14 15 15 14 14 14 14 14 15 15 15 15 15 14 15 15 15 16 17 18 17 15 15 16 16 16 16 16 16 16 17 17 18 18 18
8 8 7 3 4 4 1 3 1 0 0 4 3 3 2 1 5 7 6 5 4 2 2 2 1 2 1 1 1 1 3 3 2 2 1 4 9 16 19 20 27 27 26 25 24 23 23 23 23 23 23 23 21 21 20 19 18 17 17 15 15 15 15 15 15 15 15 15 14 14 15 15 14 14 14 14 15 14 14 15 16 17 17 15 15 15 16 16 16 16 16 16 17 17 18 18 18
7 6 7 2 2 3 3 2 1 3 2 3 3 4 3 4 7 6 4 3 2 2 2 2 1 0 2 3 1 1 4 2 3 3 1 8 12 18 21 21 26 26 25 25 24 25 25 25 24 25 25 24 21 21 21 20 18 17 16 16 16 16 16 16 16 15 15 15 15 15 14 14 14 14 14 14 14 14 14 15 15 17 17 14 14 15 15 15 16 16 16 16 17 17 18 18 19
4 4 6 3 2 1 2 1 1 2 4 3 2 4 4 6 6 3 2 1 1 1 1 2 1 1 1 3 1 1 4 1 3 4 3 8 13 18 21 22 26 25 26 25 25 27 27 26 26 26 25 24 23 22 21 19 19 17 16 16 16 16 16 16 16 15 15 15 14 14 14 14 14 14 15 14 14 14 14 14 14 15 15 13 13 14 14 14 15 15 16 16 16 17 18 18 19
2 3 6 5 3 1 2 1 2 3 5 4 3 5 4 5 4 3 1 2 1 1 1 2 1 1 1 2 2 3 4 1 2 5 4 9 14 19 20 22 25 25 26 25 27 29 28 27 26 24 23 23 23 22 21 19 19 19 17 16 16 16 15 15 16 15 14 14 14 14 14 14 14 13 13 13 13 13 12 12 12 13 13 12 12 13 13 13 14 14 15 15 16 17 18 18 18
2 1 4 4 2 2 2 2 3 4 4 4 4 5 4 4 4 4 2 0 1 2 2 2 1 2 3 2 2 5 7 4 2 4 6 11 16 20 22 23 24 25 25 26 28 29 29 28 25 23 23 24 23 22 21 20 20 20 18 17 16 15 15 15 15 14 14 14 14 13 13 13 12 12 12 12 12 11 11 11 12 12 12 12 12 12 12 12 13 13 14 15 16 17 17 17 17
4 1 1 3 1 2 2 2 3 3 4 3 4 4 4 3 5 5 4 3 1 2 1 1 1 1 3 1 1 4 7 9 6 6 9 13 18 21 23 24 26 26 26 27 27 27 28 26 24 24 24 23 22 22 21 20 20 20 19 18 17 15 14 15 14 14 14 14 14 13 13 13 12 12 12 12 11 11 11 11 11 11 11 11 11 10 11 11 11 12 14 15 15 15 15 15 16
4 2 0 2 1 1 1 2 3 3 4 5 4 4 3 4 5 4 5 3 1 2 1 2 3 2 2 2 4 3 4 11 9 8 12 15 20 23 23 25 28 28 28 28 27 27 27 24 24 24 24 23 21 21 21 20 20 19 20 18 17 15 15 15 15 14 14 14 14 14 14 14 13 13 12 12 11 11 11 10 10 10 10 10 10 10 10 10 11 12 13 14 14 13 12 12 13
3 3 1 1 2 1 2 2 2 3 5 4 4 5 3 5 6 3 4 4 2 1 1 3 3 4 2 2 5 2 4 11 10 11 15 18 22 24 24 26 28 29 30 29 27 27 26 23 24 24 24 23 21 21 20 20 20 19 19 18 17 16 16 15 15 14 14 14 14 14 14 13 14 13 12 12 12 11 11 10 10 9 9 9 9 9 9 9 10 11 12 13 12 11 10 9 10
2 3 2 1 1 1 3 3 3 4 5 4 5 5 5 5 5 2 3 3 3 2 0 3 2 4 1 3 4 1 4 10 12 14 17 20 24 25 24 25 27 29 30 28 27 27 24 21 24 26 24 22 21 21 21 21 21 19 19 17 17 16 16 16 15 15 14 14 14 14 13 13 13 12 12 12 11 11 10 9 9 8 8 8 8 9 9 9 10 11 11 11 11 10 9 8 9
1 2 3 1 1 2 3 2 4 5 6 4 4 3 2 6 4 3 5 4 3 2 3 5 2 2 2 4 3 2 4 10 13 15 17 21 24 25 23 24 26 28 29 28 28 27 24 21 24 26 21 19 21 22 22 22 20 20 19 18 18 16 16 17 16 15 15 15 14 14 13 13 12 12 12 11 11 10 9 9 8 8 7 8 8 8 9 9 10 10 10 10 9 9 9 9 9
2 2 4 1 2 2 1 1 3 5 6 4 3 3 2 5 3 4 5 4 3 2 5 7 2 1 3 4 2 2 4 10 13 15 18 20 23 24 23 23 25 26 28 29 28 28 26 23 24 24 20 19 22 23 22 22 21 21 20 18 19 17 15 17 17 16 16 15 15 15 14 14 13 13 12 12 11 10 9 8 8 7 7 7 7 8 8 9 9 9 8 9 9 8 9 9 9
2 2 4 1 0 2 2 1 3 3 4 4 2 2 1 2 3 3 5 3 6 5 4 5 4 0 3 3 3 3 5 11 14 16 18 19 22 22 22 23 24 24 26 28 27 27 28 24 23 22 22 23 23 23 22 21 22 21 18 17 19 18 16 17 18 17 17 16 15 15 16 15 14 13 13 12 11 10 10 9 8 7 7 7 7 8 8 8 8 7 8 8 8 8 8 9 9
3 2 3 1 1 0 2 3 2 2 4 4 1 1 2 3 2 3 5 5 6 4 1 2 5 2 2 3 3 4 6 14 17 17 18 19 21 21 22 22 23 24 25 28 28 27 28 26 24 23 25 26 24 23 22 22 22 20 19 19 20 20 18 18 18 19 19 18 16 17 18 17 15 14 14 12 11 11 11 10 9 8 7 7 7 8 8 7 7 7 7 8 8 8 8 9 9
3 3 3 0 2 1 3 3 1 1 5 5 2 1 2 6 2 2 4 4 3 2 2 4 6 3 2 5 4 4 7 16 18 19 19 19 20 21 22 22 23 24 26 28 28 28 29 27 26 26 27 27 26 24 23 23 23 22 22 22 22 21 21 18 18 21 22 21 20 19 20 19 17 17 16 14 14 14 14 13 10 8 7 7 7 8 7 6 6 6 6 7 7 8 8 9 9
3 3 2 1 2 2 3 4 2 3 5 5 4 2 3 6 3 2 1 3 3 3 3 4 4 3 4 4 3 2 11 19 20 20 19 19 20 20 21 22 23 24 26 27 28 28 29 28 28 29 29 28 28 27 25 26 26 24 23 23 23 23 22 20 19 21 22 22 23 23 22 22 20 20 20 19 19 17 16 15 11 8 8 8 8 8 7 6 6 6 6 6 6 6 6 7 8
3 2 2 3 3 3 5 6 5 4 4 4 3 3 5 4 3 1 1 1 4 4 4 4 5 6 6 4 2 4 16 21 21 21 19 19 20 19 20 22 24 25 27 28 28 28 30 29 29 31 31 30 30 29 28 28 27 24 22 22 23 23 22 23 22 22 22 23 24 24 24 24 23 22 22 22 20 17 16 16 12 9 8 8 8 8 7 6 6 7 7 6 5 5 5 5 6
2 3 1 4 5 5 5 6 5 4 3 4 3 2 5 5 3 1 2 4 3 4 6 3 6 10 9 6 3 10 19 22 22 22 20 20 20 20 20 22 25 26 28 30 29 29 31 30 30 32 33 32 31 30 29 29 27 24 23 23 24 24 24 25 25 25 24 24 24 24 25 25 25 24 22 21 18 15 15 16 14 11 10 9 9 8 8 7 7 7 7 6 5 5 5 5 5
2 3 2 6 6 5 5 6 6 5 2 2 4 1 3 6 2 1 3 5 4 6 7 4 8 13 11 6 8 15 20 21 21 22 21 22 23 23 23 24 26 28 30 31 30 30 32 32 33 33 34 33 32 31 30 29 27 25 25 26 26 26 27 27 27 27 26 25 25 25 25 25 25 24 22 20 17 15 15 16 15 14 12 11 10 9 8 8 7 6 6 6 6 6 5 5 5
2 3 4 5 4 3 5 6 6 4 1 1 2 1 3 5 2 2 3 3 7 8 9 9 12 13 8 6 9 15 18 18 20 21 22 23 24 24 25 26 27 28 28 28 30 32 34 35 35 35 34 34 34 33 32 30 28 27 28 28 28 28 28 29 28 28 27 26 25 25 25 26 25 24 22 21 19 17 17 16 16 14 12 11 10 10 9 8 6 5 5 7 7 7 6 6 6
2 3 6 5 4 3 6 3 3 2 2 2 1 1 5 2 2 5 5 6 9 6 7 11 13 11 6 8 10 13 14 16 19 22 22 24 25 25 25 25 25 26 27 29 31 33 34 36 36 36 36 35 35 34 32 31 30 29 29 29 29 29 29 29 29 29 28 26 25 24 25 27 25 23 22 22 21 19 18 16 15 13 11 11 10 10 10 9 8 6 7 7 7 8 8 8 7
2 4 4 4 5 4 4 1 1 2 3 3 3 3 2 2 5 4 7 13 12 4 3 7 8 8 7 10 10 11 13 15 19 24 26 26 27 28 26 25 25 27 29 30 31 32 34 36 37 38 37 37 36 34 33 32 31 31 30 31 31 30 30 30 30 29 28 27 25 24 25 28 26 25 24 23 23 21 19 17 15 13 12 11 11 10 10 10 9 8 8 8 8 8 8 8 8
3 4 5 3 4 5 3 2 1 2 4 6 2 2 3 5 6 2 6 17 15 7 4 4 4 4 7 9 10 12 14 16 22 28 31 31 32 32 30 27 28 28 28 29 30 32 34 37 38 38 38 38 36 35 34 32 32 31 31 31 31 31 31 31 31 30 29 27 25 24 26 27 27 27 26 25 24 22 20 18 16 15 13 12 11 11 10 10 9 9 9 9 8 9 9 9 9
3 5 4 2 2 5 5 3 2 1 4 4 0 4 7 8 3 3 13 17 12 10 8 6 3 3 6 8 10 11 12 16 22 27 30 30 31 30 29 28 27 27 28 30 31 31 34 37 38 39 39 38 37 36 35 34 33 33 32 32 32 31 31 31 31 30 29 28 26 25 26 27 28 28 27 26 25 23 21 19 18 16 14 13 12 11 11 10 10 10 10 10 9 10 10 10 10
5 5 3 2 3 5 4 3 2 2 3 1 2 8 8 6 1 6 17 15 10 9 9 9 6 5 7 8 10 11 11 14 19 24 27 28 28 27 28 28 26 27 29 30 31 31 34 36 38 40 40 39 39 37 36 35 35 34 33 33 32 31 31 31 31 31 30 28 27 26 27 27 28 28 27 26 25 24 22 21 20 18 16 15 13 12 11 10 10 11 11 11 10 10 11 11 11
3 3 2 3 4 5 2 3 4 4 4 2 3 10 9 4 1 6 11 7 4 4 8 8 6 9 9 8 9 10 11 16 21 22 21 23 25 26 28 27 27 29 29 30 32 33 33 35 38 40 40 40 40 39 38 37 36 35 34 34 33 32 32 32 32 32 30 29 28 27 28 28 28 27 27 27 26 25 24 23 21 20 18 16 14 13 12 11 11 11 11 11 11 11 12 12 12
1 0 4 6 6 6 2 2 5 3 3 4 4 9 10 1 1 11 12 3 1 2 7 7 6 10 9 8 8 7 10 17 21 18 18 22 26 28 29 30 31 30 30 32 33 33 33 36 39 40 40 41 41 40 40 39 38 36 35 35 34 33 33 34 33 33 31 30 29 28 28 28 28 28 28 27 26 26 25 24 23 22 20 18 16 14 13 12 12 12 12 12 12 12 13 13 14
1 2 4 8 8 6 4 2 4 1 1 3 3 7 9 4 8 17 12 1 1 3 9 8 7 9 7 8 7 7 10 14 15 17 23 27 29 31 32 35 35 32 32 33 32 32 34 37 38 40 40 41 41 42 41 40 39 37 37 37 36 35 35 35 35 34 33 31 30 30 30 29 29 29 28 28 27 27 26 25 25 23 22 19 17 16 15 14 14 14 14 14 15 15 15 15 15
1 2 2 6 8 6 5 1 1 0 1 1 1 5 10 9 12 15 8 1 2 5 10 9 7 7 7 7 6 8 10 11 14 22 29 30 30 32 33 36 36 34 32 31 32 33 36 37 38 40 41 41 42 43 42 41 40 39 39 38 37 37 37 36 36 35 34 33 32 31 31 31 31 30 29 29 29 28 28 27 27 25 23 21 19 18 17 16 16 16 16 16 17 17 17 17 17
2 2 2 3 3 5 6 1 2 1 2 3 2 2 12 15 11 10 6 2 5 8 11 10 8 7 7 7 7 9 10 12 19 26 29 30 31 31 33 36 36 36 34 32 34 36 37 37 38 40 41 42 43 43 43 42 42 41 40 40 39 39 38 38 37 37 36 35 34 33 32 33 33 32 31 30 30 30 30 29 28 27 25 23 22 21 19 19 18 18 18 18 18 18 18 18 18
2 2 4 3 1 5 8 3 3 2 3 4 2 3 10 16 11 5 2 3 5 7 11 9 9 10 9 8 8 9 9 12 19 25 27 29 31 32 33 36 36 37 37 36 36 36 36 36 37 39 40 42 43 44 44 43 42 42 41 41 41 40 40 39 39 38 38 37 36 35 34 35 35 34 33 32 31 31 31 31 30 29 27 25 24 23 22 22 21 20 20 19 19 19 19 20 20
3 1 4 4 2 4 7 3 0 1 3 3 1 4 8 11 8 3 2 4 4 7 12 12 11 12 10 9 8 9 9 9 14 20 26 29 31 33 34 35 37 38 39 39 37 35 36 36 37 39 40 43 44 44 44 43 42 42 42 42 42 42 41 41 41 41 40 39 38 37 37 37 36 35 35 34 33 33 33 32 31 30 29 28 26 26 25 24 23 22 22 21 21 21 21 21 21
3 2 2 4 3 3 5 4 4 4 0 3 2 5 12 16 15 13 5 3 6 10 14 16 13 13 11 9 8 9 9 10 12 16 25 30 32 34 35 36 36 37 39 39 39 38 38 38 38 40 40 42 43 44 44 43 43 41 41 40 40 40 41 42 42 42 41 40 40 39 39 38 37 36 36 36 35 34 34 33 33 32 31 30 29 28 27 26 25 24 23 23 22 23 22 22 22
3 3 3 4 3 4 5 5 3 5 1 5 4 7 16 20 19 20 11 5 9 14 14 15 15 14 12 9 10 10 10 13 14 15 23 30 33 35 36 36 35 35 37 38 39 39 38 38 38 38 40 40 41 42 42 41 39 37 36 36 35 36 38 40 40 41 42 42 42 41 40 40 39 38 38 37 37 36 35 35 35 34 33 32 31 30 29 29 28 27 26 25 25 24 24 23 22
4 4 3 4 5 5 6 6 4 3 3 7 7 9 15 19 19 21 15 5 9 14 13 12 13 12 11 9 10 10 11 15 15 15 21 27 30 33 33 34 34 34 35 36 37 37 37 37 36 37 39 39 39 38 38 37 35 34 33 32 33 35 37 39 40 41 42 43 43 42 42 41 41 41 40 39 39 38 37 37 37 37 36 34 34 33 33 33 32 30 29 27 27 26 25 25 23
3 2 3 4 5 7 6 4 5 1 2 7 7 8 13 17 19 21 17 7 8 13 13 12 12 10 10 9 11 11 12 14 12 12 19 24 26 29 30 31 31 31 32 33 34 36 37 37 38 39 40 38 38 38 38 37 36 34 32 32 35 37 38 38 39 41 42 43 43 43 43 43 42 42 41 41 40 40 40 39 39 39 38 37 37 36 36 35 33 32 30 29 28 27 27 26 25
2 2 3 4 4 8 6 2 5 2 1 5 4 8 15 16 18 20 17 11 11 12 11 12 12 10 8 9 12 12 11 10 8 10 15 19 22 25 27 28 29 31 32 34 35 37 38 39 41 41 40 39 40 41 40 40 41 40 38 38 40 40 39 40 41 43 44 45 44 44 44 43 43 43 43 42 41 41 42 42 42 41 40 39 38 37 36 35 34 33 32 30 29 29 29 27 26
2 2 1 4 4 5 6 3 4 2 1 5 6 10 17 18 17 18 15 10 11 10 9 10 10 9 9 9 11 11 10 10 9 8 10 16 20 22 25 28 31 33 34 35 37 37 38 39 40 40 40 40 41 41 41 42 42 42 41 41 40 39 39 41 42 42 42 43 42 42 42 43 43 43 43 43 43 43 43 43 43 43 42 41 40 39 38 37 36 36 34 33 31 28 28 27 27
2 2 1 5 3 1 4 4 4 3 2 4 7 9 14 14 11 13 10 7 8 8 8 10 8 10 12 9 8 9 10 12 11 9 7 11 16 20 24 27 29 31 31 33 35 36 37 38 39 39 39 41 41 41 42 41 40 39 39 38 36 35 34 35 36 37 37 38 39 40 42 43 43 43 44 44 44 44 44 44 44 44 44 43 42 41 40 40 39 39 37 36 33 28 27 29 29
3 5 5 6 3 3 5 4 5 4 2 2 5 7 9 6 5 8 7 3 7 7 6 10 8 9 10 9 10 10 10 11 10 9 6 6 11 17 22 24 26 28 31 34 36 37 37 37 39 40 40 41 41 41 41 39 36 35 34 32 29 27 27 28 29 33 34 35 37 40 42 43 43 44 44 45 45 45 45 45 45 45 44 44 43 42 42 42 41 40 39 39 37 34 31 31 29
4 4 8 7 3 3 2 5 6 5 4 2 2 5 7 6 4 7 7 7 10 7 6 11 11 7 7 8 10 10 8 9 9 9 7 5 9 14 18 22 23 27 31 34 35 35 36 36 37 38 39 39 40 40 39 38 36 34 33 31 28 25 25 27 31 34 35 36 39 41 42 42 43 44 45 45 46 45 45 45 45 45 45 44 44 44 43 41 41 41 41 41 40 40 36 30 28
4 4 4 4 4 3 1 4 4 2 5 4 3 2 5 9 8 7 5 8 12 11 8 11 10 7 6 7 9 9 9 9 8 9 8 6 8 10 15 21 24 28 31 30 30 31 33 34 34 36 38 38 38 39 38 38 38 36 35 35 34 32 30 32 35 36 36 37 39 40 40 41 41 42 43 44 45 45 46 45 45 45 45 45 44 44 43 42 42 43 42 43 42 41 37 31 29
3 3 3 5 5 1 2 3 2 2 5 3 2 4 3 6 8 5 4 8 12 12 11 11 11 12 13 12 11 10 10 9 9 10 9 8 8 10 14 20 25 28 28 26 27 30 32 33 33 34 36 37 37 37 38 39 39 38 37 36 36 36 35 35 34 34 34 35 35 36 37 38 39 39 41 42 43 44 45 45 46 45 45 45 44 44 44 44 43 43 42 42 42 40 40 38 34
4 4 3 4 4 2 4 4 2 0 3 4 2 3 2 5 7 5 4 6 10 13 14 16 18 18 17 16 16 15 13 10 8 9 10 9 10 13 15 17 20 23 24 24 26 28 29 30 31 31 33 35 35 36 36 38 39 39 38 37 36 37 37 37 34 32 31 32 33 35 35 36 37 38 39 40 42 43 44 45 46 46 46 45 45 45 45 44 43 43 42 42 42 42 43 42 39
3 5 4 3 4 3 3 4 2 2 1 5 5 6 3 4 7 6 6 7 10 12 12 15 18 19 18 18 18 17 16 14 11 10 10 11 13 16 17 16 16 16 18 20 22 22 23 25 26 28 30 32 33 34 35 37 38 38 37 37 37 37 37 36 34 31 30 30 31 33 35 36 37 38 39 39 40 41 42 44 45 46 46 46 46 45 44 44 43 43 44 44 44 44 43 43 42
3 4 3 3 4 3 3 2 3 3 2 6 5 5 2 3 5 4 6 4 7 10 12 15 18 20 20 19 18 18 17 16 15 14 13 16 19 19 17 15 15 14 13 14 15 17 19 20 22 25 28 28 29 31 33 35 36 37 37 38 38 38 37 35 32 32 32 31 32 34 35 36 37 37 38 38 39 40 41 43 44 45 46 45 45 45 45 45 45 45 44 44 44 43 43 42 43
3 3 3 3 3 3 3 4 3 1 5 6 4 2 2 2 3 6 7 6 10 11 12 15 18 18 18 17 17 17 17 16 17 17 16 18 20 22 22 20 19 17 14 11 10 11 13 15 18 21 24 24 25 27 29 31 33 34 37 38 37 38 38 34 32 33 33 33 34 35 35 34 35 35 36 37 38 39 41 42 43 43 44 45 45 45 46 46 45 44 43 43 42 43 43 41 41
4 3 4 3 4 4 3 3 1 3 5 3 2 0 1 3 1 7 9 11 14 11 10 12 14 15 15 15 15 14 15 17 17 17 18 18 17 20 24 24 25 26 23 19 14 10 9 9 11 15 17 16 18 21 24 27 29 33 35 36 38 38 36 35 34 34 34 33 33 33 33 33 34 35 35 38 40 41 42 42 42 43 44 45 45 46 46 45 44 43 42 43 43 42 42 42 43
4 3 3 3 1 2 4 4 3 5 4 3 2 1 2 3 1 5 9 10 9 8 10 10 11 13 12 12 12 13 15 17 16 16 17 17 18 23 27 28 30 32 31 30 26 20 15 11 10 11 12 12 12 15 18 22 25 29 31 33 36 36 35 35 34 34 34 34 33 33 33 34 34 35 37 39 41 41 41 42 42 43 44 44 45 45 45 45 44 43 43 43 43 43 43 43 44
3 3 4 4 3 2 4 4 4 6 5 4 3 1 3 3 4 3 4 5 6 8 9 10 11 12 10 11 13 15 16 16 15 15 16 18 22 26 28 30 32 33 34 35 35 33 30 26 22 19 18 15 13 13 14 17 21 23 25 28 30 32 32 32 32 33 33 33 33 32 32 32 33 35 37 38 39 39 39 40 41 42 42 43 43 44 44 44 43 43 43 43 43 43 42 42 44
1 2 4 1 3 4 2 3 4 2 3 4 2 3 4 5 9 6 4 6 10 11 11 13 15 13 12 13 15 15 15 15 14 14 15 18 24 28 28 30 32 33 34 36 37 38 37 36 35 32 29 25 21 17 14 14 16 19 21 24 26 27 28 29 30 31 32 32 32 31 31 32 33 35 36 36 37 37 38 38 39 40 41 41 42 43 43 43 43 42 43 43 43 42 41 43 44
1 2 2 4 4 4 0 3 1 4 1 4 1 2 5 1 3 4 13 14 15 15 13 13 12 13 13 13 14 14 14 13 13 12 13 17 23 26 28 29 31 32 34 35 36 37 36 36 36 36 35 34 31 27 23 20 17 16 17 18 20 22 24 26 28 29 30 31 31 31 32 34 34 35 36 36 36 36 37 37 38 39 40 40 41 42 42 42 42 42 43 43 43 42 41 43 44
3 2 4 3 1 3 2 1 3 3 2 4 1 3 5 2 2 10 19 18 17 16 14 13 13 15 16 14 14 14 13 12 12 13 14 17 22 25 27 29 30 31 32 33 34 35 35 35 35 35 35 34 33 31 28 25 22 20 18 16 16 17 19 21 22 24 26 27 28 30 31 32 34 34 35 35 35 35 36 36 37 38 39 39 40 41 41 41 41 41 42 43 43 41 40 43 43
3 3 2 1 1 2 2 0 2 1 3 4 3 4 3 2 2 7 12 14 16 16 15 16 17 17 15 13 13 12 12 11 11 12 13 15 20 24 25 28 29 31 32 32 33 34 35 35 35 34 33 31 31 31 29 27 24 22 20 18 17 16 15 16 17 18 20 22 24 26 28 30 31 31 32 32 33 34 34 35 36 37 38 38 39 39 39 40 40 41 41 41 41 39 39 42 42
3 2 3 2 3 3 1 1 2 1 3 4 4 5 2 2 1 5 6 8 11 13 14 13 12 12 10 10 10 10 10 9 10 11 11 13 19 23 25 27 27 28 30 31 32 33 34 34 34 34 33 32 32 31 30 29 27 25 22 21 19 17 16 16 15 14 15 16 18 20 22 25 26 27 28 29 30 31 32 33 34 35 37 37 37 38 38 38 38 40 41 40 40 38 39 42 41
2 2 2 2 1 1 1 1 2 2 3 3 3 5 3 1 2 3 4 5 6 8 10 9 9 8 8 8 8 8 8 9 10 10 9 12 17 21 24 25 26 27 29 31 31 31 31 32 33 33 32 32 32 31 30 28 27 26 24 23 22 20 20 19 17 16 16 16 16 16 17 19 21 22 24 25 27 28 29 31 32 34 35 35 36 36 36 36 37 39 40 39 39 37 38 41 40
4 3 3 3 2 0 2 4 1 1 2 3 2 5 3 2 2 2 3 4 3 5 7 8 8 8 8 8 9 9 8 8 10 9 9 11 16 19 22 25 26 27 29 30 29 29 30 31 31 31 31 31 31 31 30 28 27 26 25 25 24 23 22 21 20 19 19 18 18 18 17 18 18 18 19 21 23 25 26 28 30 32 33 34 35 35 35 35 36 38 39 38 38 37 38 40 39
Wind_Direction
341 343 349 351 347 330 1 42 51 323 81 250 262 212 261 239 159 208 255 263 296 253 201 186 197 238 151 195 225 206 205 183 175 162 207 313 77 168 167 166 168 166 165 164 163 163 162 162 159 156 153 149 144 138 138 134 132 133 134 133 131 132 131 132 131 126 122 116 114 116 113 109 107 106 102 99 101 99 97 93 93 95 89 83 82 81 81 83 83 83 83 85 86 87 91 92 89
348 348 354 357 15 34 280 64 109 323 41 269 255 181 255 317 318 228 223 200 202 243 60 110 99 11 100 286 280 234 260 241 207 193 259 21 133 167 169 169 169 167 165 164 164 163 164 163 158 156 152 149 143 134 136 138 133 130 134 137 135 135 134 136 135 132 128 125 120 116 115 113 110 107 104 102 103 102 99 95 92 93 93 87 84 83 83 83 83 84 84 86 86 88 93 96 95
349 348 356 352 20 44 70 43 124 65 74 255 260 225 250 227 232 234 226 210 202 178 43 17 32 26 71 320 316 227 255 303 221 216 295 158 158 172 171 169 170 169 166 164 165 165 164 162 158 155 149 148 145 136 136 137 135 131 134 140 141 137 134 135 136 134 130 130 127 123 121 119 116 110 108 108 106 105 103 98 93 93 94 90 86 85 84 84 84 84 86 88 87 91 95 98 98
354 358 3 18 42 33 68 35 148 138 210 245 269 256 221 216 234 240 251 241 175 111 34 23 329 160 132 219 276 282 246 291 215 200 216 180 178 174 170 170 171 170 168 167 167 165 162 161 158 152 146 147 148 143 139 137 139 138 138 142 144 141 138 136 135 135 133 131 130 128 125 123 123 116 112 111 109 109 105 100 95 93 93 92 90 87 85 85 86 87 88 89 89 91 94 97 101
358 25 19 64 98 16 94 61 110 150 222 198 246 260 225 227 236 239 294 307 145 104 81 99 284 289 96 223 197 258 224 214 215 218 216 191 185 173 169 171 172 170 170 169 166 162 159 161 158 149 145 147 149 146 143 141 142 145 145 144 145 144 143 141 138 136 134 132 132 130 127 127 128 121 114 113 112 111 106 103 97 91 93 96 95 90 88 88 88 90 90 91 91 91 93 99 108
360 66 37 64 96 115 121 232 189 221 234 172 223 258 239 241 225 181 44 350 309 284 191 150 223 164 311 250 193 213 206 148 203 220 218 193 187 176 170 173 173 171 170 169 165 161 159 160 157 150 147 149 149 147 146 144 144 147 148 147 146 146 147 147 143 140 138 135 134 133 130 131 130 128 122 118 116 113 109 105 100 95 99 102 97 94 91 91 90 92 93 93 92 91 93 103 113
23 84 32 65 70 38 117 223 221 239 246 178 210 254 258 248 198 147 119 239 308 287 212 195 136 127 257 261 240 232 211 223 195 201 205 190 188 178 172 174 173 171 169 167 165 163 160 157 156 156 153 152 154 151 149 147 147 149 148 147 148 148 150 151 147 145 146 141 136 134 134 134 132 134 133 128 123 120 115 109 105 104 106 105 101 98 94 94 93 94 95 94 91 91 96 104 112
48 92 349 88 78 11 101 241 248 222 254 234 220 247 254 212 174 152 171 186 190 239 206 199 108 161 268 18 263 242 214 217 203 201 195 187 187 178 174 175 173 170 169 167 167 165 160 158 159 163 159 156 159 156 152 149 151 151 147 148 151 153 154 153 152 149 149 147 142 138 136 135 134 135 136 134 131 126 120 116 114 111 109 107 105 101 97 95 95 95 94 94 92 92 98 105 109
49 49 147 88 118 352 7 263 270 230 255 267 248 251 248 181 168 154 178 222 241 206 215 180 161 216 288 346 259 276 229 210 201 200 187 186 185 178 176 176 174 170 169 168 168 165 162 163 163 164 162 160 161 156 153 153 156 153 149 153 155 155 156 155 155 154 150 149 148 143 137 135 136 134 132 133 134 131 125 122 119 115 113 110 107 103 100 97 94 94 93 94 95 96 100 105 109
40 25 124 84 96 293 303 257 254 254 247 248 256 246 218 168 168 162 166 229 255 161 258 149 170 238 298 288 256 300 219 201 196 191 183 186 183 179 177 175 175 171 170 170 169 167 165 166 163 163 163 162 161 157 154 155 157 155 153 156 157 155 158 159 157 158 157 155 154 150 142 138 139 136 133 133 134 134 130 126 122 118 115 112 109 105 102 97 93 94 95 97 99 102 105 108 112
38 2 98 99 59 234 256 251 259 265 270 291 283 242 200 158 152 180 178 233 239 174 173 122 202 240 268 280 252 257 191 187 193 186 180 184 182 181 179 174 176 173 173 171 169 169 167 170 168 163 161 162 164 162 158 158 160 161 158 159 163 162 162 164 163 161 159 160 161 157 153 145 142 143 139 137 136 136 133 128 126 123 119 116 114 110 104 98 96 96 97 101 105 109 113 116 117
86 344 65 109 199 216 228 248 274 282 299 308 285 270 169 143 143 205 200 226 213 178 215 180 206 180 176 273 260 286 215 188 188 181 178 182 181 181 181 177 177 176 175 173 170 169 167 170 174 169 168 170 168 166 164 162 163 164 163 164 167 168 168 168 170 169 163 164 166 164 164 156 151 152 150 145 143 141 139 135 134 129 125 126 121 114 109 104 100 101 104 107 112 117 119 121 121
124 144 92 141 188 180 232 247 282 307 310 272 252 306 120 144 191 215 174 214 198 179 242 204 169 107 209 261 278 314 238 197 183 177 177 178 179 180 183 180 179 179 177 177 175 172 169 170 177 179 180 175 169 168 167 164 165 166 167 173 172 169 174 172 170 174 172 168 169 170 166 161 158 157 155 153 150 148 147 144 140 138 136 134 125 119 115 111 108 109 113 115 119 123 122 123 123
147 151 117 204 196 133 210 256 278 282 279 262 269 292 169 177 226 184 137 218 225 191 247 202 144 124 243 265 306 308 221 194 180 180 176 175 179 179 183 182 181 181 180 181 179 177 175 173 176 179 177 171 170 171 170 166 168 169 168 178 177 170 171 171 170 171 175 173 170 171 168 164 162 161 162 161 160 158 155 152 148 149 146 136 127 123 119 115 117 120 121 123 127 128 127 129 128
147 136 97 172 301 328 217 229 251 228 258 258 266 188 195 250 194 156 177 211 245 205 185 190 164 191 216 191 243 280 213 187 178 180 175 175 179 179 183 183 183 183 182 182 181 179 178 177 175 177 177 174 174 174 173 170 171 173 169 174 177 175 171 169 172 171 175 176 173 174 171 171 169 169 171 169 168 164 161 161 155 155 150 140 136 129 126 126 128 130 134 140 142 141 140 138 137
117 104 73 242 239 268 222 217 231 254 261 244 255 124 180 270 199 175 219 186 269 256 155 199 190 193 183 182 227 281 200 180 177 178 173 174 177 179 184 184 186 186 186 185 184 183 180 181 181 182 181 179 179 179 178 174 174 177 175 177 179 181 176 171 177 178 179 179 179 181 177 175 176 177 175 172 172 169 172 171 160 157 154 145 142 137 141 152 151 150 158 162 159 158 156 151 147
75 83 86 271 205 192 209 208 192 203 265 266 277 189 175 285 271 207 245 151 240 244 199 222 219 210 193 195 254 280 177 175 175 174 171 171 174 178 185 187 189 190 191 191 189 188 186 188 188 187 186 184 184 184 184 179 180 183 184 187 185 182 179 180 185 187 188 185 185 188 185 180 179 181 178 179 184 183 184 177 162 159 158 150 149 149 161 179 184 186 190 183 174 172 168 162 157
70 91 152 238 195 198 194 195 200 189 266 264 257 210 186 257 254 228 357 235 250 257 252 250 261 254 225 222 284 158 169 172 172 172 172 172 175 180 187 190 192 193 195 195 195 193 193 193 191 189 188 188 188 187 186 184 186 190 191 192 190 185 183 187 192 194 195 192 192 193 192 190 188 188 187 190 195 196 195 183 168 162 160 155 157 166 177 194 203 207 213 204 190 182 179 175 168
109 117 170 236 200 218 203 192 208 197 259 264 273 242 200 231 214 122 254 265 290 265 265 248 257 262 242 228 191 165 169 172 174 176 179 181 184 186 188 192 195 197 196 197 198 197 197 195 191 190 189 189 190 189 188 188 191 192 190 190 190 187 188 193 196 199 200 197 197 198 197 197 196 195 197 200 201 201 199 189 177 168 166 163 168 179 185 199 209 212 218 212 205 199 190 184 179
165 131 222 246 211 243 237 210 219 215 250 296 294 266 205 248 230 117 228 271 293 239 247 223 237 252 237 202 163 168 172 177 182 183 188 191 193 192 192 193 195 198 198 198 198 197 197 195 192 191 190 190 191 191 190 191 193 193 190 191 192 190 193 197 200 203 204 202 202 203 203 200 199 200 202 204 205 204 198 192 187 184 186 187 191 198 202 215 225 225 222 215 214 215 208 200 192
168 157 210 234 187 253 255 220 222 222 192 199 269 355 259 258 212 214 185 266 277 240 231 219 230 245 221 172 169 173 176 183 190 192 196 198 200 199 200 199 199 200 198 198 199 198 197 195 193 192 193 193 194 194 193 194 195 194 192 194 196 196 199 201 204 207 208 208 208 209 207 203 202 203 205 206 208 208 202 199 200 201 205 208 212 218 225 236 243 236 223 219 219 219 218 216 209
171 215 213 210 158 237 269 226 212 189 119 156 168 244 258 269 212 222 175 218 253 230 224 220 230 245 192 170 182 177 182 190 194 199 202 203 204 205 205 204 202 201 200 200 201 200 196 195 195 194 195 195 196 198 198 198 198 197 197 198 200 202 204 206 209 211 212 213 212 215 212 206 205 206 208 211 212 212 208 208 209 211 215 218 223 228 233 241 244 235 226 226 223 223 222 221 219
227 261 257 233 178 222 281 35 222 172 136 194 197 242 276 337 280 234 189 227 240 206 197 215 241 252 194 173 177 181 191 194 197 202 204 205 206 206 205 204 202 202 202 203 203 201 199 196 196 196 197 197 198 200 201 201 201 202 202 204 205 206 207 210 212 214 215 216 217 219 213 208 209 211 213 214 215 214 212 212 214 217 220 225 230 233 237 241 243 238 234 232 228 228 226 226 226
218 258 285 267 189 217 279 11 262 160 192 223 210 300 285 242 271 329 218 237 245 247 221 212 264 244 181 173 179 192 197 197 203 206 206 207 208 207 206 205 204 204 203 204 204 203 201 199 198 198 198 199 200 201 203 204 204 205 206 208 209 210 212 214 216 216 217 218 220 219 213 211 215 216 216 216 216 216 215 215 216 219 222 228 234 236 240 242 244 242 239 237 234 234 231 229 229
206 233 270 279 207 249 289 302 272 240 236 247 285 269 254 233 242 320 256 250 251 252 248 246 242 161 174 190 195 199 202 205 209 210 210 211 212 211 210 209 207 205 204 205 205 205 204 202 200 199 200 201 203 204 205 206 206 207 209 210 211 213 216 218 218 219 219 220 221 219 214 214 217 219 219 218 218 218 217 217 218 221 224 229 234 238 242 244 245 243 242 241 237 236 235 234 232
217 216 266 280 301 304 306 279 280 328 272 250 278 268 267 252 268 272 255 256 263 249 249 252 227 208 210 205 204 203 206 211 212 213 213 214 214 214 213 212 210 208 207 206 205 206 207 205 203 203 203 204 204 206 207 208 208 209 211 213 214 215 218 220 220 221 221 222 222 220 217 217 219 221 221 220 220 220 219 219 220 222 225 229 233 238 242 245 246 245 245 244 242 241 240 238 237
199 202 266 256 304 314 302 273 296 330 285 228 244 272 279 283 326 263 250 259 292 254 252 254 222 232 229 215 217 210 211 215 215 213 212 214 214 215 215 213 212 212 210 207 208 208 207 207 207 205 205 205 206 207 209 210 211 213 215 215 216 218 219 220 220 222 222 223 224 222 219 219 221 223 223 223 222 223 222 222 223 224 226 229 233 237 241 244 245 247 248 248 248 246 244 242 240
111 65 301 293 327 313 287 303 300 326 287 208 192 268 279 296 192 247 251 277 10 232 264 263 226 240 235 225 227 213 222 223 217 212 210 213 213 213 214 213 214 213 211 210 210 208 207 209 210 208 206 207 207 209 210 211 213 215 216 217 218 220 220 221 221 222 223 224 225 223 222 221 222 224 225 225 225 226 226 226 227 228 230 230 233 236 239 242 242 244 245 245 245 244 244 242 241
74 58 322 304 348 331 293 319 298 299 254 198 165 286 280 211 214 246 251 254 41 256 264 262 239 246 242 233 232 220 229 225 215 213 216 216 214 213 213 215 215 213 213 213 211 208 209 211 211 210 209 209 209 210 211 213 215 217 218 219 220 220 221 222 222 223 224 224 225 224 223 223 224 226 226 227 228 229 230 230 231 232 233 233 234 235 236 238 239 240 240 241 242 242 243 242 241
273 51 38 312 350 323 283 9 8 157 246 268 110 308 287 248 228 247 261 180 243 272 261 261 254 254 251 238 235 233 230 220 213 215 218 218 217 216 216 218 216 215 215 213 212 210 211 211 211 211 210 211 211 212 213 215 217 218 220 221 221 222 222 223 224 225 226 225 226 226 225 224 225 227 227 228 228 230 231 232 234 235 234 233 233 234 235 237 238 239 240 240 242 243 245 245 244
304 341 34 356 343 286 288 296 116 167 311 14 88 263 281 279 257 247 272 190 207 259 264 266 264 257 255 244 236 240 234 222 221 221 220 219 218 218 218 219 217 216 215 213 213 212 212 211 210 211 211 212 213 214 215 217 218 219 221 222 222 223 224 225 226 226 228 227 227 227 227 226 226 227 228 228 229 230 232 233 235 236 235 234 234 234 235 236 237 238 239 240 240 242 244 245 246
20 321 305 338 210 270 306 296 170 224 317 26 100 237 276 285 284 260 289 113 171 246 267 269 267 261 255 249 241 243 244 232 231 230 226 222 220 219 219 220 218 216 216 215 215 213 212 212 211 212 212 213 214 215 216 217 219 221 222 224 224 225 225 226 228 229 229 229 228 228 228 228 228 228 229 229 230 231 233 235 236 237 235 234 235 235 235 235 236 236 237 239 240 242 243 244 245
360 32 262 280 259 293 320 318 349 326 321 353 226 243 278 281 283 273 127 129 181 252 272 270 265 262 255 250 244 243 250 244 237 232 227 223 221 221 220 220 219 217 217 217 216 213 212 212 213 213 213 215 216 216 217 217 219 221 223 224 224 225 225 227 229 229 229 229 230 230 230 229 229 230 230 230 231 233 235 236 237 237 236 235 236 236 236 237 237 236 236 237 239 242 243 243 244
322 14 263 260 251 280 308 307 344 29 294 269 251 236 264 271 275 280 258 196 250 263 269 270 265 261 256 251 249 247 247 245 240 229 223 222 222 222 221 221 220 218 218 218 217 216 214 213 213 214 215 216 216 217 217 218 219 221 222 223 223 224 225 227 229 227 228 230 231 231 231 231 231 232 232 232 232 234 236 238 238 238 237 236 235 236 237 237 237 237 237 238 239 240 242 244 244
254 278 272 290 279 243 267 272 307 20 356 254 270 258 266 273 277 282 274 212 245 260 261 267 268 265 262 254 250 249 247 248 247 232 224 224 222 222 221 221 220 219 218 218 218 218 216 215 214 214 215 216 216 216 217 218 218 220 221 222 223 224 225 227 228 228 229 231 232 233 233 233 234 234 234 234 234 235 236 238 239 238 237 236 235 234 235 235 236 235 236 237 237 238 241 244 245
206 228 211 266 283 260 249 252 270 6 327 265 254 256 271 281 284 287 286 220 227 258 262 264 266 267 266 259 252 249 248 251 251 238 230 227 224 223 221 221 220 219 219 218 218 217 216 215 214 215 216 216 215 215 215 216 216 218 220 220 222 223 226 227 228 229 230 232 233 234 235 235 236 235 235 235 235 235 236 238 238 238 237 236 234 234 235 236 237 236 236 236 235 235 237 239 241
148 171 211 249 262 277 268 266 294 360 302 267 252 260 270 277 282 285 291 283 254 263 265 266 265 264 262 256 255 250 246 253 258 244 234 230 228 225 222 221 220 220 220 218 217 216 216 215 215 215 216 215 214 214 213 213 214 215 217 218 222 224 225 226 228 230 231 233 236 236 236 237 237 236 236 236 236 236 237 238 237 237 237 236 236 237 238 239 239 239 238 236 235 234 234 236 236
94 172 253 279 239 267 281 295 308 346 306 272 296 303 283 278 281 282 288 291 273 262 257 263 264 263 262 257 257 254 253 260 262 245 231 227 225 223 220 219 218 218 218 217 216 216 216 215 216 217 216 214 215 215 214 214 215 216 217 220 223 225 226 226 228 231 233 235 237 237 237 237 238 238 237 237 237 237 237 237 237 237 238 237 237 238 238 238 238 237 235 233 233 234 235 237 233
96 135 256 291 249 277 303 329 328 354 286 285 329 321 292 285 282 279 282 275 266 260 247 255 265 269 265 254 255 259 265 268 259 246 228 221 220 217 216 216 217 218 218 217 217 217 216 215 216 216 216 215 216 216 216 217 218 218 219 222 224 225 227 229 231 233 234 235 236 236 237 237 238 238 239 239 238 237 237 237 238 238 239 239 238 237 236 235 235 235 234 233 231 230 232 235 233
168 160 206 270 265 307 293 307 322 310 244 283 316 309 288 290 293 287 281 260 266 272 257 256 253 255 259 259 262 259 260 266 263 254 232 219 218 214 214 215 216 217 218 218 218 218 217 216 216 216 216 217 217 218 218 219 220 220 222 224 226 227 229 231 232 233 235 235 236 236 237 238 238 239 240 240 239 239 238 238 239 239 239 239 238 237 235 235 235 234 233 232 229 225 226 232 233
252 202 215 247 248 223 241 290 316 315 331 283 314 317 292 300 326 303 301 296 287 297 299 283 260 246 260 273 271 256 250 261 268 268 251 220 220 218 217 218 217 216 217 219 218 217 217 217 217 217 217 218 219 219 219 219 219 220 220 221 225 227 229 231 231 232 233 234 236 239 240 240 241 241 241 241 241 241 240 240 239 239 239 239 238 237 237 237 236 235 234 233 230 227 228 230 230
304 233 225 230 214 201 251 327 338 356 344 293 24 360 296 301 310 275 298 330 303 307 322 294 283 272 268 269 272 271 268 266 269 276 270 233 226 225 225 223 219 219 221 221 220 219 219 219 219 218 218 219 220 220 220 219 218 218 216 215 217 220 223 226 228 230 231 233 237 241 242 243 243 243 242 241 241 241 241 241 240 239 239 239 239 238 237 237 236 236 236 234 233 233 231 228 226
307 263 217 180 132 110 57 7 14 4 289 269 96 113 264 303 304 262 292 326 302 303 307 289 297 321 321 309 305 313 314 307 302 294 285 260 237 223 223 223 220 223 226 225 224 223 222 221 220 220 220 220 221 221 220 219 219 219 218 218 220 221 224 228 231 234 235 237 240 241 242 243 243 243 242 242 241 242 242 242 241 240 240 240 240 239 237 237 238 239 238 237 236 235 230 226 227
255 235 131 117 114 134 153 91 110 216 284 292 143 154 212 289 290 276 316 319 306 315 323 321 339 359 359 350 340 336 327 320 318 309 304 293 269 249 236 227 223 227 229 227 225 224 223 223 222 222 222 222 222 222 221 221 220 220 221 223 225 227 230 234 237 238 240 240 242 243 243 244 245 244 244 243 243 243 243 242 242 241 241 241 240 240 239 239 239 239 238 238 237 234 230 229 230
242 202 136 115 121 163 146 122 163 197 345 307 227 162 200 262 272 295 345 345 330 329 337 346 353 360 3 358 351 347 338 328 319 309 304 301 289 282 274 257 242 235 231 229 228 228 227 225 224 224 224 225 224 224 224 224 223 223 223 225 228 231 234 238 240 242 243 244 244 245 246 246 247 247 246 246 246 245 244 243 243 242 242 241 241 241 241 241 239 238 237 237 236 235 233 232 231
210 146 107 70 81 87 91 111 142 72 19 264 231 182 196 270 277 312 13 18 344 333 346 357 357 1 5 3 359 353 348 344 339 328 315 308 303 300 298 290 280 265 249 239 234 233 231 230 228 227 228 228 227 227 227 226 226 225 225 226 230 233 236 239 241 243 244 245 245 246 247 247 248 248 247 247 246 246 245 245 244 243 243 243 242 242 241 241 240 239 239 239 238 236 234 233 232
136 108 67 29 45 56 48 88 99 62 258 261 253 197 172 295 278 360 39 15 344 351 358 359 0 5 7 5 4 2 0 356 352 351 347 338 334 336 336 329 322 314 291 266 251 242 238 235 233 232 232 231 231 231 230 230 229 227 228 229 232 235 237 239 239 241 243 243 245 246 247 248 248 248 248 248 247 247 247 246 245 245 244 243 242 242 242 241 241 241 240 239 238 237 235 234 234
105 75 47 1 338 29 20 355 52 86 247 272 289 215 140 259 277 30 42 22 17 20 6 359 2 6 7 6 5 6 8 7 5 5 4 360 357 359 1 2 2 358 346 325 295 270 256 248 244 242 241 238 237 236 234 234 233 232 233 233 234 237 239 239 239 241 243 243 245 246 247 248 248 248 249 248 249 249 248 247 246 245 243 243 243 243 243 243 242 241 240 238 237 237 236 235 235
89 88 62 31 334 360 347 310 290 221 241 280 326 209 192 225 298 23 31 27 21 22 16 6 5 7 9 7 3 7 13 15 16 16 15 14 12 9 9 13 18 18 15 8 355 332 304 281 269 263 262 259 253 248 245 242 239 238 238 237 238 240 241 241 242 243 245 246 247 247 248 248 248 248 247 248 250 251 249 247 246 246 245 245 245 244 244 243 242 240 239 239 238 237 237 235 236
134 153 120 127 77 358 300 281 286 280 269 288 329 48 245 243 58 26 33 33 17 21 24 15 14 13 9 5 4 12 21 21 20 21 23 22 20 18 19 22 25 25 24 25 22 16 7 353 332 313 309 306 290 275 264 256 251 248 246 244 244 244 243 244 245 246 248 249 250 250 250 250 250 250 251 253 255 254 252 250 249 248 248 247 247 246 245 243 242 240 239 239 239 239 238 237 238
171 165 127 144 158 186 258 250 254 284 295 301 310 185 215 203 154 121 74 50 25 32 26 19 22 15 8 11 13 18 22 22 20 20 24 24 21 22 24 26 28 28 28 30 31 31 32 30 24 15 5 353 336 317 296 279 270 264 258 254 252 250 249 250 251 252 253 254 255 255 255 256 255 256 257 259 259 257 255 254 252 250 250 249 248 247 245 243 242 240 240 240 240 240 238 238 239
212 135 108 168 187 172 230 214 192 260 321 304 272 216 227 172 158 147 88 47 29 27 20 20 19 10 12 18 17 17 19 18 16 16 20 22 22 22 24 25 26 25 26 29 30 32 34 34 36 36 32 27 19 5 348 325 304 290 280 272 266 262 259 257 257 258 259 260 261 261 261 262 262 262 263 263 263 261 259 257 255 253 252 250 249 248 246 243 241 240 240 240 240 239 238 238 239
149 121 184 228 190 139 173 273 16 62 331 281 256 245 301 320 179 360 13 15 18 17 13 18 13 7 16 20 17 16 14 13 12 11 16 19 20 21 22 24 24 24 24 25 26 28 30 31 32 33 33 32 31 27 21 11 355 336 316 299 288 279 273 269 267 267 267 267 266 266 266 267 266 266 266 266 265 264 262 260 258 256 254 252 250 248 246 244 242 240 240 240 240 239 238 239 239
121 169 233 242 163 89 94 268 338 26 251 273 294 248 299 325 275 349 3 1 1 4 2 6 7 12 17 15 13 10 6 6 6 9 15 19 19 18 18 20 22 23 23 23 23 25 26 27 28 29 28 27 27 27 27 24 18 10 359 346 330 313 300 292 286 284 282 278 275 274 272 272 271 271 269 268 267 265 264 262 260 258 256 253 251 248 246 244 241 240 240 240 241 239 238 240 240
121 195 249 83 146 292 14 152 275 308 267 285 309 284 276 195 258 349 1 353 351 352 356 3 6 10 11 6 4 2 1 3 4 8 11 15 16 15 16 17 18 20 20 20 20 21 22 23 24 25 25 24 24 24 24 24 22 18 13 9 1 350 338 326 317 310 302 295 290 288 284 281 280 279 276 273 270 268 266 263 261 259 257 254 252 249 246 243 240 240 241 240 240 238 237 240 239
53 6 342 38 166 201 221 193 191 203 266 279 307 315 307 153 339 352 356 351 353 351 353 360 360 1 1 356 356 354 357 2 3 7 9 10 12 12 14 15 15 17 17 16 17 18 18 19 19 20 19 19 20 19 19 19 18 17 15 13 11 7 2 356 350 342 332 322 314 308 302 296 293 290 285 281 277 273 269 267 264 261 258 255 253 250 247 244 241 241 241 240 240 238 237 239 239
71 32 325 305 252 217 259 248 149 157 247 253 288 298 275 112 50 11 351 350 359 357 351 346 345 351 353 349 350 349 355 1 2 5 6 6 8 10 12 13 13 15 16 15 15 15 15 16 15 15 14 14 13 13 13 12 12 14 13 13 12 10 8 5 3 1 358 352 344 336 327 318 311 305 299 293 286 281 276 272 268 264 261 257 254 252 249 245 242 242 242 241 240 238 237 240 240
139 163 206 195 184 242 288 280 305 88 216 190 222 282 264 136 78 44 7 339 345 2 356 344 339 342 345 346 347 347 351 359 359 360 2 4 5 7 9 10 12 14 13 12 12 12 13 13 12 11 11 11 9 8 7 6 7 9 10 10 11 10 9 7 6 5 3 360 356 351 345 338 332 327 319 308 300 293 287 280 274 269 265 262 258 255 251 247 244 244 243 242 241 238 238 240 239